,,,PA_Meas_PMT16A,,PR_Meas_QMR101_102,,RH_Meas_QMH101,,SR_Meas_QMS101,,TA_Meas_QMH101,,GenWind,,GenWind,
date,time,status,PA,status,PR,status,RH,status,SR,status,TA,status,DirAvg,status,SpdAvg,
2012-06-19, 00:00:04,VALID,1001.76,VALID,0,VALID,91.1358,VALID,0,VALID,22.3746,VALID,292,VALID,0.792188,
2012-06-19, 00:01:04,VALID,1001.78,VALID,0,VALID,90.8535,VALID,0,VALID,22.2966,VALID,355,VALID,0.985937,
2012-06-19, 00:02:04,VALID,1001.76,VALID,0,VALID,91.3952,VALID,0,VALID,22.2186,VALID,360,VALID,0.971094,
2012-06-19, 00:03:04,VALID,1001.77,VALID,0,VALID,91.4868,VALID,0,VALID,22.121,VALID,360,VALID,0.901172,
2012-06-19, 00:04:04,VALID,1001.78,VALID,0,VALID,91.8148,VALID,0,VALID,22.082,VALID,17,VALID,1.2125,
2012-06-19, 00:05:04,VALID,1001.76,VALID,0,VALID,92.3566,VALID,0,VALID,22.043,VALID,20,VALID,0.831641,
2012-06-19, 00:06:04,VALID,1001.75,VALID,0,VALID,92.3871,VALID,0,VALID,22.0235,VALID,20,VALID,0.589844,
2012-06-19, 00:07:04,VALID,1001.74,VALID,0,VALID,92.471,VALID,0,VALID,22.004,VALID,20,VALID,0.423828,
2012-06-19, 00:08:04,VALID,1001.71,VALID,0,VALID,92.7914,VALID,0,VALID,22.0235,VALID,20,VALID,0.312891,
2012-06-19, 00:09:04,VALID,1001.64,VALID,0,VALID,93.0356,VALID,0,VALID,22.0625,VALID,20,VALID,0.147266,
2012-06-19, 00:10:04,VALID,1001.67,VALID,0,VALID,93.1043,VALID,0,VALID,22.082,VALID,20,VALID,0.00703125,
2012-06-19, 00:11:04,VALID,1001.64,VALID,0,VALID,93.2111,VALID,0,VALID,22.0803,VALID,20,VALID,0.053125,
2012-06-19, 00:12:04,VALID,1001.65,VALID,0,VALID,93.2797,VALID,0,VALID,22.1405,VALID,20,VALID,0,
2012-06-19, 00:13:04,VALID,1001.63,VALID,0,VALID,93.1958,VALID,0,VALID,22.121,VALID,20,VALID,0,
2012-06-19, 00:14:04,VALID,1001.66,VALID,0,VALID,92.9517,VALID,0,VALID,22.1015,VALID,20,VALID,0,
2012-06-19, 00:15:04,VALID,1001.68,VALID,0,VALID,92.8448,VALID,0.104696,VALID,22.1015,VALID,20,VALID,0.260547,
2012-06-19, 00:16:04,VALID,1001.65,VALID,0,VALID,92.8983,VALID,0,VALID,22.082,VALID,44,VALID,0.783203,
2012-06-19, 00:17:04,VALID,1001.63,VALID,0,VALID,92.9059,VALID,0,VALID,22.1015,VALID,54,VALID,0.706641,
2012-06-19, 00:18:04,VALID,1001.66,VALID,0,VALID,92.7228,VALID,0,VALID,22.082,VALID,54,VALID,0.174219,
2012-06-19, 00:19:04,VALID,1001.66,VALID,0,VALID,92.5931,VALID,0,VALID,22.043,VALID,54,VALID,0.188672,
2012-06-19, 00:20:04,VALID,1001.64,VALID,0,VALID,92.7151,VALID,0,VALID,22.0235,VALID,54,VALID,0.575781,
2012-06-19, 00:21:04,VALID,1001.64,VALID,0,VALID,92.9364,VALID,0,VALID,22.0235,VALID,54,VALID,0.707812,
2012-06-19, 00:22:04,VALID,1001.63,VALID,0,VALID,93.1653,VALID,0,VALID,22.0235,VALID,54,VALID,1.13047,
2012-06-19, 00:23:04,VALID,1001.65,VALID,0,VALID,93.234,VALID,0,VALID,22.043,VALID,54,VALID,1.07383,
2012-06-19, 00:24:04,VALID,1001.59,VALID,0,VALID,92.9211,VALID,0,VALID,22.004,VALID,42,VALID,1.02383,
2012-06-19, 00:25:04,VALID,1001.61,VALID,0,VALID,92.6541,VALID,0,VALID,21.9845,VALID,42,VALID,0.688281,
2012-06-19, 00:26:04,VALID,1001.57,VALID,0,VALID,92.6923,VALID,0,VALID,21.9455,VALID,42,VALID,0.499219,
2012-06-19, 00:27:04,VALID,1001.53,VALID,0,VALID,92.9669,VALID,0,VALID,21.926,VALID,42,VALID,0.294531,
2012-06-19, 00:28:04,VALID,1001.49,VALID,0,VALID,93.3026,VALID,0,VALID,21.9065,VALID,33,VALID,0.573047,
2012-06-19, 00:29:04,VALID,1001.49,VALID,0,VALID,93.7299,VALID,0,VALID,21.926,VALID,16,VALID,0.948438,
2012-06-19, 00:30:04,VALID,1001.47,VALID,0,VALID,93.9893,VALID,0,VALID,21.9455,VALID,16,VALID,0.998047,
2012-06-19, 00:31:04,VALID,1001.45,VALID,0,VALID,94.0808,VALID,0,VALID,21.926,VALID,16,VALID,1.01289,
2012-06-19, 00:32:04,VALID,1001.44,VALID,0,VALID,94.1724,VALID,0,VALID,21.9455,VALID,16,VALID,0.897266,
2012-06-19, 00:33:04,VALID,1001.42,VALID,0,VALID,94.0656,VALID,0,VALID,21.926,VALID,16,VALID,1.12109,
2012-06-19, 00:34:04,VALID,1001.38,VALID,0,VALID,93.9969,VALID,0,VALID,21.8853,VALID,20,VALID,1.1543,
2012-06-19, 00:35:04,VALID,1001.37,VALID,0,VALID,94.0198,VALID,0,VALID,21.9065,VALID,10,VALID,1.34531,
2012-06-19, 00:36:04,VALID,1001.37,VALID,0,VALID,93.9893,VALID,0,VALID,21.926,VALID,10,VALID,1.08789,
2012-06-19, 00:37:04,VALID,1001.33,VALID,0,VALID,93.7223,VALID,0,VALID,21.9048,VALID,10,VALID,1.20859,
2012-06-19, 00:38:04,VALID,1001.3,VALID,0,VALID,93.5163,VALID,0,VALID,21.887,VALID,10,VALID,1.19102,
2012-06-19, 00:39:05,VALID,1001.29,VALID,0,VALID,93.5849,VALID,0,VALID,21.887,VALID,360,VALID,0.995703,
2012-06-19, 00:40:05,VALID,1001.27,VALID,0,VALID,93.5544,VALID,0,VALID,21.926,VALID,351,VALID,1.0707,
2012-06-19, 00:41:05,VALID,1001.27,VALID,0,VALID,93.4628,VALID,0,VALID,21.965,VALID,329,VALID,0.697266,
2012-06-19, 00:42:05,VALID,1001.32,VALID,0,VALID,93.2492,VALID,0,VALID,21.9845,VALID,328,VALID,0.45625,
2012-06-19, 00:43:05,VALID,1001.32,VALID,0,VALID,93.0051,VALID,0,VALID,22.0235,VALID,328,VALID,0.259766,
2012-06-19, 00:44:05,VALID,1001.29,VALID,0,VALID,92.532,VALID,0,VALID,21.9828,VALID,35,VALID,1.0707,
2012-06-19, 00:45:05,VALID,1001.34,VALID,0,VALID,92.2955,VALID,0,VALID,21.9845,VALID,46,VALID,1.36289,
2012-06-19, 00:46:05,VALID,1001.33,VALID,0,VALID,91.9751,VALID,0,VALID,21.9472,VALID,85,VALID,1.61055,
2012-06-19, 00:47:05,VALID,1001.31,VALID,0,VALID,92.2192,VALID,0,VALID,21.8675,VALID,94,VALID,1.54844,
2012-06-19, 00:48:05,VALID,1001.29,VALID,0,VALID,92.7151,VALID,0,VALID,21.887,VALID,81,VALID,1.21992,
2012-06-19, 00:49:05,VALID,1001.26,VALID,0,VALID,92.9822,VALID,0,VALID,21.9065,VALID,86,VALID,0.532422,
2012-06-19, 00:50:05,VALID,1001.24,VALID,0,VALID,93.0203,VALID,0,VALID,21.9065,VALID,86,VALID,0.378125,
2012-06-19, 00:51:05,VALID,1001.22,VALID,0,VALID,93.089,VALID,0,VALID,21.9065,VALID,86,VALID,0.592578,
2012-06-19, 00:52:05,VALID,1001.25,VALID,0,VALID,93.2797,VALID,0,VALID,21.9048,VALID,77,VALID,0.837109,
2012-06-19, 00:53:05,VALID,1001.25,VALID,0,VALID,93.501,VALID,0,VALID,21.965,VALID,77,VALID,0.808203,
2012-06-19, 00:54:05,VALID,1001.24,VALID,0,VALID,93.4705,VALID,0,VALID,22.004,VALID,67,VALID,0.999609,
2012-06-19, 00:55:05,VALID,1001.22,VALID,0,VALID,93.089,VALID,0,VALID,21.9845,VALID,54,VALID,0.954687,
2012-06-19, 00:56:05,VALID,1001.21,VALID,0,VALID,93.1271,VALID,0,VALID,22.043,VALID,54,VALID,0.973047,
2012-06-19, 00:57:05,VALID,1001.21,VALID,0,VALID,92.944,VALID,0,VALID,22.1227,VALID,46,VALID,1.08086,
2012-06-19, 00:58:05,VALID,1001.17,VALID,0,VALID,92.6236,VALID,0,VALID,22.1795,VALID,46,VALID,1.06406,
2012-06-19, 00:59:05,VALID,1001.17,VALID,0,VALID,91.8454,VALID,0,VALID,22.1389,VALID,46,VALID,1.26133,
2012-06-19, 01:00:05,VALID,1001.15,VALID,0,VALID,91.8454,VALID,0,VALID,22.1795,VALID,46,VALID,1.13828,
2012-06-19, 01:01:05,VALID,1001.11,VALID,0,VALID,91.7004,VALID,0,VALID,22.16,VALID,46,VALID,0.752734,
2012-06-19, 01:02:05,VALID,1001.11,VALID,0,VALID,91.6394,VALID,0,VALID,22.1405,VALID,46,VALID,0.380078,
2012-06-19, 01:03:05,VALID,1001.07,VALID,0,VALID,91.4639,VALID,0,VALID,22.082,VALID,46,VALID,0.0945313,
2012-06-19, 01:04:05,VALID,1001.06,VALID,0,VALID,91.4257,VALID,0,VALID,22.0235,VALID,46,VALID,0.303906,
2012-06-19, 01:05:05,VALID,1001.06,VALID,0,VALID,91.6088,VALID,0,VALID,21.9845,VALID,46,VALID,0.164453,
2012-06-19, 01:06:05,VALID,1001.02,VALID,0,VALID,91.792,VALID,0,VALID,21.926,VALID,46,VALID,0,
2012-06-19, 01:07:05,VALID,1001.03,VALID,0,VALID,92.059,VALID,0,VALID,21.887,VALID,46,VALID,0,
2012-06-19, 01:08:05,VALID,1001.03,VALID,0,VALID,92.3031,VALID,0,VALID,21.8675,VALID,46,VALID,0,
2012-06-19, 01:09:05,VALID,1001.01,VALID,0,VALID,92.5397,VALID,0,VALID,21.8675,VALID,46,VALID,0,
2012-06-19, 01:10:05,VALID,1001.01,VALID,0,VALID,92.6541,VALID,0,VALID,21.8285,VALID,46,VALID,0,
2012-06-19, 01:11:05,VALID,1001.03,VALID,0,VALID,93.0051,VALID,0,VALID,21.8285,VALID,46,VALID,0,
2012-06-19, 01:12:05,VALID,1001.02,VALID,0,VALID,93.3866,VALID,0,VALID,21.8675,VALID,46,VALID,0.0714844,
2012-06-19, 01:13:05,VALID,1000.99,VALID,0,VALID,93.768,VALID,0,VALID,21.9065,VALID,46,VALID,0.542188,
2012-06-19, 01:14:05,VALID,1000.99,VALID,0,VALID,94.2105,VALID,0,VALID,22.004,VALID,147,VALID,0.553516,
2012-06-19, 01:15:05,VALID,1001.01,VALID,0,VALID,94.4928,VALID,0,VALID,22.0625,VALID,147,VALID,0.420703,
2012-06-19, 01:16:05,VALID,1000.97,VALID,0,VALID,94.5691,VALID,0,VALID,22.1015,VALID,147,VALID,0.220703,
2012-06-19, 01:17:05,VALID,1000.98,VALID,0,VALID,94.5462,VALID,0,VALID,22.1015,VALID,147,VALID,0.105469,
2012-06-19, 01:18:05,VALID,1000.98,VALID,0,VALID,94.3174,VALID,0,VALID,22.0625,VALID,147,VALID,0.338281,
2012-06-19, 01:19:05,VALID,1000.99,VALID,0,VALID,93.8825,VALID,0,VALID,22.0057,VALID,147,VALID,0.590234,
2012-06-19, 01:20:05,VALID,1000.98,VALID,0,VALID,93.44,VALID,0,VALID,21.9455,VALID,147,VALID,0.468359,
2012-06-19, 01:21:05,VALID,1000.97,VALID,0,VALID,93.3866,VALID,0,VALID,21.9277,VALID,147,VALID,0.438281,
2012-06-19, 01:22:05,VALID,1000.96,VALID,0,VALID,93.0966,VALID,0,VALID,21.8692,VALID,116,VALID,0.675781,
2012-06-19, 01:23:05,VALID,1000.96,VALID,0,VALID,93.3866,VALID,0,VALID,21.8692,VALID,105,VALID,0.933984,
2012-06-19, 01:24:05,VALID,1000.96,VALID,0,VALID,93.9588,VALID,0,VALID,21.9667,VALID,118,VALID,0.984766,
2012-06-19, 01:25:05,VALID,1000.98,VALID,0,VALID,94.2258,VALID,0,VALID,22.0252,VALID,116,VALID,1.14531,
2012-06-19, 01:26:05,VALID,1000.96,VALID,0,VALID,94.0427,VALID,0,VALID,22.0447,VALID,108,VALID,1.10039,
2012-06-19, 01:27:05,VALID,1000.96,VALID,0,VALID,93.9359,VALID,0,VALID,22.0625,VALID,105,VALID,1.02773,
2012-06-19, 01:28:05,VALID,1000.96,VALID,0,VALID,93.9664,VALID,0,VALID,22.1422,VALID,105,VALID,0.882813,
2012-06-19, 01:29:05,VALID,1000.94,VALID,0,VALID,93.974,VALID,0,VALID,22.16,VALID,105,VALID,0.616406,
2012-06-19, 01:30:05,VALID,1000.94,VALID,0,VALID,93.8748,VALID,0,VALID,22.16,VALID,109,VALID,0.707422,
2012-06-19, 01:31:05,VALID,1000.93,VALID,0,VALID,93.7451,VALID,0,VALID,22.1812,VALID,114,VALID,0.522656,
2012-06-19, 01:32:05,VALID,1000.95,VALID,0,VALID,93.6078,VALID,0,VALID,22.1795,VALID,114,VALID,0.05625,
2012-06-19, 01:33:05,VALID,1000.93,VALID,0,VALID,93.4934,VALID,0,VALID,22.1617,VALID,114,VALID,0.194922,
2012-06-19, 01:34:05,VALID,1000.91,VALID,0,VALID,93.5773,VALID,0,VALID,22.1617,VALID,114,VALID,0.366016,
2012-06-19, 01:35:05,VALID,1000.92,VALID,0,VALID,93.707,VALID,0,VALID,22.1812,VALID,114,VALID,0.205078,
2012-06-19, 01:36:05,VALID,1000.89,VALID,0,VALID,93.7451,VALID,0,VALID,22.2007,VALID,114,VALID,0,
2012-06-19, 01:37:05,VALID,1000.88,VALID,0,VALID,93.5544,VALID,0,VALID,22.1405,VALID,114,VALID,0.28125,
2012-06-19, 01:38:05,VALID,1000.92,VALID,0,VALID,93.1577,VALID,0,VALID,22.1032,VALID,114,VALID,0.223047,
2012-06-19, 01:39:05,VALID,1000.87,VALID,0,VALID,93.1577,VALID,0,VALID,22.0642,VALID,114,VALID,0.388281,
2012-06-19, 01:40:05,VALID,1000.86,VALID,0,VALID,93.3942,VALID,0,VALID,22.0447,VALID,114,VALID,0.628516,
2012-06-19, 01:41:05,VALID,1000.85,VALID,0,VALID,93.501,VALID,0,VALID,22.0235,VALID,87,VALID,0.791016,
2012-06-19, 01:42:05,VALID,1000.81,VALID,0,VALID,93.5391,VALID,0,VALID,22.0235,VALID,66,VALID,1.025,
2012-06-19, 01:43:05,VALID,1000.81,VALID,0,VALID,93.5697,VALID,0,VALID,22.0642,VALID,66,VALID,1.13477,
2012-06-19, 01:44:05,VALID,1000.77,VALID,0,VALID,93.8062,VALID,0,VALID,22.082,VALID,66,VALID,1.03516,
2012-06-19, 01:45:05,VALID,1000.78,VALID,0,VALID,93.8901,VALID,0,VALID,22.1227,VALID,66,VALID,0.936719,
2012-06-19, 01:46:05,VALID,1000.72,VALID,0,VALID,93.8367,VALID,0,VALID,22.121,VALID,66,VALID,0.712891,
2012-06-19, 01:47:05,VALID,1000.71,VALID,0,VALID,93.2034,VALID,0,VALID,22.043,VALID,66,VALID,0.239453,
2012-06-19, 01:48:05,VALID,1000.7,VALID,0,VALID,92.9135,VALID,0,VALID,21.9667,VALID,43,VALID,0.646094,
2012-06-19, 01:49:05,VALID,1000.69,VALID,0,VALID,93.2721,VALID,0,VALID,21.926,VALID,22,VALID,0.60625,
2012-06-19, 01:50:05,VALID,1000.72,VALID,0,VALID,93.5849,VALID,0,VALID,21.9065,VALID,22,VALID,0.624219,
2012-06-19, 01:51:05,VALID,1000.68,VALID,0,VALID,93.7375,VALID,0,VALID,21.9065,VALID,22,VALID,0.722266,
2012-06-19, 01:52:05,VALID,1000.7,VALID,0,VALID,93.9359,VALID,0,VALID,21.9277,VALID,22,VALID,0.722266,
2012-06-19, 01:53:05,VALID,1000.7,VALID,0,VALID,94.0808,VALID,0,VALID,21.926,VALID,22,VALID,0.683594,
2012-06-19, 01:54:05,VALID,1000.7,VALID,0,VALID,94.0885,VALID,0,VALID,21.9455,VALID,22,VALID,0.622266,
2012-06-19, 01:55:05,VALID,1000.7,VALID,0,VALID,93.913,VALID,0,VALID,21.9277,VALID,22,VALID,0.55,
2012-06-19, 01:56:05,VALID,1000.69,VALID,0,VALID,93.768,VALID,0,VALID,21.887,VALID,22,VALID,0.363672,
2012-06-19, 01:57:05,VALID,1000.69,VALID,0,VALID,93.8062,VALID,0,VALID,21.887,VALID,22,VALID,0.186328,
2012-06-19, 01:58:05,VALID,1000.69,VALID,0,VALID,93.8825,VALID,0,VALID,21.8675,VALID,22,VALID,0.0246094,
2012-06-19, 01:59:05,VALID,1000.7,VALID,0,VALID,94.0808,VALID,0,VALID,21.887,VALID,22,VALID,0.405469,
2012-06-19, 02:00:05,VALID,1000.68,VALID,0,VALID,94.3174,VALID,0,VALID,21.926,VALID,22,VALID,0.592969,
2012-06-19, 02:01:05,VALID,1000.7,VALID,0,VALID,94.5844,VALID,0,VALID,22.0252,VALID,64,VALID,0.739062,
2012-06-19, 02:02:05,VALID,1000.7,VALID,0,VALID,94.7523,VALID,0,VALID,22.0625,VALID,64,VALID,0.4875,
2012-06-19, 02:03:05,VALID,1000.7,VALID,0,VALID,94.7141,VALID,0,VALID,22.0642,VALID,64,VALID,0.0316406,
2012-06-19, 02:04:05,VALID,1000.71,VALID,0,VALID,94.5234,VALID,0,VALID,22.004,VALID,64,VALID,0.162109,
2012-06-19, 02:05:05,VALID,1000.69,VALID,0,VALID,94.4623,VALID,0,VALID,22.0235,VALID,75,VALID,0.639453,
2012-06-19, 02:06:05,VALID,1000.69,VALID,0,VALID,94.5081,VALID,0,VALID,22.0447,VALID,93,VALID,0.836328,
2012-06-19, 02:07:05,VALID,1000.7,VALID,0,VALID,94.4623,VALID,0,VALID,22.0235,VALID,93,VALID,0.607813,
2012-06-19, 02:08:05,VALID,1000.68,VALID,0,VALID,94.2182,VALID,0,VALID,21.9845,VALID,93,VALID,0.415234,
2012-06-19, 02:09:05,VALID,1000.71,VALID,0,VALID,93.9054,VALID,0,VALID,21.9277,VALID,93,VALID,0.120312,
2012-06-19, 02:10:05,VALID,1000.71,VALID,0,VALID,93.852,VALID,0,VALID,21.848,VALID,93,VALID,0.0847656,
2012-06-19, 02:11:05,VALID,1000.73,VALID,0,VALID,93.8901,VALID,0,VALID,21.8496,VALID,93,VALID,0,
2012-06-19, 02:12:05,VALID,1000.7,VALID,0,VALID,93.9893,VALID,0,VALID,21.8301,VALID,93,VALID,0,
2012-06-19, 02:13:05,VALID,1000.7,VALID,0,VALID,94.1419,VALID,0,VALID,21.8496,VALID,93,VALID,0,
2012-06-19, 02:14:05,VALID,1000.69,VALID,0,VALID,94.325,VALID,0,VALID,21.8285,VALID,93,VALID,0.43125,
2012-06-19, 02:15:05,VALID,1000.66,VALID,0,VALID,94.5844,VALID,0,VALID,21.8675,VALID,93,VALID,0.463281,
2012-06-19, 02:16:05,VALID,1000.65,VALID,0,VALID,94.6912,VALID,0,VALID,21.9065,VALID,93,VALID,0.384766,
2012-06-19, 02:17:05,VALID,1000.66,VALID,0,VALID,94.737,VALID,0,VALID,21.9082,VALID,93,VALID,0.397656,
2012-06-19, 02:18:05,VALID,1000.66,VALID,0,VALID,94.7675,VALID,0,VALID,21.9472,VALID,93,VALID,0.340625,
2012-06-19, 02:19:05,VALID,1000.66,VALID,0,VALID,94.7294,VALID,0,VALID,21.9455,VALID,93,VALID,0.257031,
2012-06-19, 02:20:05,VALID,1000.64,VALID,0,VALID,94.6607,VALID,0.104696,VALID,21.926,VALID,93,VALID,0,
2012-06-19, 02:21:05,VALID,1000.65,VALID,0,VALID,94.5462,VALID,0,VALID,21.887,VALID,93,VALID,0,
2012-06-19, 02:22:05,VALID,1000.63,VALID,0,VALID,94.4776,VALID,0,VALID,21.887,VALID,93,VALID,0,
2012-06-19, 02:23:05,VALID,1000.62,VALID,0,VALID,94.4776,VALID,0,VALID,21.8675,VALID,93,VALID,0,
2012-06-19, 02:24:05,VALID,1000.61,VALID,0,VALID,94.5386,VALID,0,VALID,21.887,VALID,88,VALID,0.392969,
2012-06-19, 02:25:05,VALID,1000.59,VALID,0,VALID,94.4013,VALID,0,VALID,21.848,VALID,20,VALID,1.06328,
2012-06-19, 02:26:05,VALID,1000.61,VALID,0,VALID,94.3097,VALID,0,VALID,21.7895,VALID,20,VALID,1.08633,
2012-06-19, 02:27:05,VALID,1000.61,VALID,0,VALID,94.47,VALID,0.104696,VALID,21.77,VALID,20,VALID,0.850391,
2012-06-19, 02:28:05,VALID,1000.65,VALID,0,VALID,94.592,VALID,0,VALID,21.7505,VALID,20,VALID,0.598437,
2012-06-19, 02:29:05,VALID,1000.63,VALID,0,VALID,94.5081,VALID,0,VALID,21.653,VALID,20,VALID,0.175781,
2012-06-19, 02:30:05,VALID,1000.6,VALID,0,VALID,94.5005,VALID,0,VALID,21.6335,VALID,20,VALID,0.0109375,
2012-06-19, 02:31:05,VALID,1000.61,VALID,0,VALID,94.592,VALID,0,VALID,21.6335,VALID,9,VALID,0.497266,
2012-06-19, 02:32:05,VALID,1000.57,VALID,0,VALID,94.8667,VALID,0,VALID,21.692,VALID,264,VALID,0.799609,
2012-06-19, 02:33:05,VALID,1000.54,VALID,0,VALID,94.9964,VALID,0,VALID,21.77,VALID,251,VALID,0.780469,
2012-06-19, 02:34:05,VALID,1000.5,VALID,0,VALID,95.0574,VALID,0,VALID,21.8301,VALID,251,VALID,0.489062,
2012-06-19, 02:35:05,VALID,1000.48,VALID,0,VALID,95.0727,VALID,0,VALID,21.8887,VALID,251,VALID,0.324609,
2012-06-19, 02:36:05,VALID,1000.47,VALID,0,VALID,94.9735,VALID,0,VALID,21.887,VALID,251,VALID,0.203906,
2012-06-19, 02:37:05,VALID,1000.45,VALID,0,VALID,94.8057,VALID,0,VALID,21.9082,VALID,251,VALID,0,
2012-06-19, 02:38:05,VALID,1000.47,VALID,0,VALID,94.6073,VALID,0,VALID,21.8692,VALID,251,VALID,0.00195313,
2012-06-19, 02:39:05,VALID,1000.43,VALID,0,VALID,94.5462,VALID,0,VALID,21.8692,VALID,251,VALID,0.3125,
2012-06-19, 02:40:05,VALID,1000.44,VALID,0,VALID,94.4318,VALID,0,VALID,21.8496,VALID,251,VALID,0.358203,
2012-06-19, 02:41:05,VALID,1000.43,VALID,0,VALID,94.3403,VALID,0,VALID,21.7716,VALID,251,VALID,0.573438,
2012-06-19, 02:42:05,VALID,1000.38,VALID,0,VALID,94.386,VALID,0,VALID,21.7521,VALID,184,VALID,0.689453,
2012-06-19, 02:43:05,VALID,1000.41,VALID,0,VALID,94.3479,VALID,0,VALID,21.7115,VALID,173,VALID,0.721875,
2012-06-19, 02:44:05,VALID,1000.39,VALID,0,VALID,94.3174,VALID,0,VALID,21.7895,VALID,173,VALID,0.662891,
2012-06-19, 02:45:05,VALID,1000.38,VALID,0,VALID,94.2258,VALID,0,VALID,21.848,VALID,173,VALID,0.713281,
2012-06-19, 02:46:05,VALID,1000.37,VALID,0,VALID,93.9664,VALID,0,VALID,21.887,VALID,173,VALID,0.769531,
2012-06-19, 02:47:05,VALID,1000.35,VALID,0,VALID,93.6917,VALID,0,VALID,21.9455,VALID,173,VALID,0.757422,
2012-06-19, 02:48:05,VALID,1000.35,VALID,0,VALID,93.4934,VALID,0,VALID,22.0235,VALID,173,VALID,0.657812,
2012-06-19, 02:49:05,VALID,1000.33,VALID,0,VALID,93.1119,VALID,0,VALID,22.1032,VALID,173,VALID,0.763672,
2012-06-19, 02:50:05,VALID,1000.32,VALID,0,VALID,92.5397,VALID,0,VALID,22.1617,VALID,163,VALID,0.650781,
2012-06-19, 02:51:05,VALID,1000.35,VALID,0,VALID,92.1506,VALID,0,VALID,22.1812,VALID,163,VALID,0.696094,
2012-06-19, 02:52:05,VALID,1000.36,VALID,0,VALID,91.8988,VALID,0,VALID,22.2202,VALID,163,VALID,0.567578,
2012-06-19, 02:53:05,VALID,1000.33,VALID,0,VALID,91.8072,VALID,0,VALID,22.2397,VALID,163,VALID,0.489844,
2012-06-19, 02:54:05,VALID,1000.32,VALID,0,VALID,91.502,VALID,0,VALID,22.2397,VALID,163,VALID,0.514063,
2012-06-19, 02:55:05,VALID,1000.32,VALID,0,VALID,90.9985,VALID,0,VALID,22.2007,VALID,163,VALID,0.700781,
2012-06-19, 02:56:05,VALID,1000.36,VALID,0,VALID,91.38,VALID,0,VALID,22.16,VALID,102,VALID,0.653125,
2012-06-19, 02:57:05,VALID,1000.35,VALID,0,VALID,91.5173,VALID,0,VALID,22.121,VALID,102,VALID,0.296484,
2012-06-19, 02:58:05,VALID,1000.33,VALID,0,VALID,91.6546,VALID,0,VALID,22.082,VALID,102,VALID,0.366016,
2012-06-19, 02:59:05,VALID,1000.34,VALID,0,VALID,91.9674,VALID,0,VALID,22.043,VALID,358,VALID,0.798437,
2012-06-19, 03:00:05,VALID,1000.33,VALID,0,VALID,92.3108,VALID,0,VALID,22.0447,VALID,357,VALID,0.865234,
2012-06-19, 03:01:05,VALID,1000.31,VALID,0,VALID,92.471,VALID,0,VALID,22.0057,VALID,2,VALID,1.02578,
2012-06-19, 03:02:05,VALID,1000.29,VALID,0,VALID,92.5091,VALID,0,VALID,21.965,VALID,2,VALID,0.8375,
2012-06-19, 03:03:05,VALID,1000.31,VALID,0,VALID,92.616,VALID,0,VALID,21.9472,VALID,2,VALID,0.277344,
2012-06-19, 03:04:05,VALID,1000.31,VALID,0,VALID,92.6083,VALID,0,VALID,21.9277,VALID,2,VALID,0,
2012-06-19, 03:05:05,VALID,1000.31,VALID,0,VALID,92.6923,VALID,0,VALID,21.8692,VALID,2,VALID,0,
2012-06-19, 03:06:05,VALID,1000.31,VALID,0,VALID,92.7991,VALID,0,VALID,21.8496,VALID,2,VALID,0,
2012-06-19, 03:07:05,VALID,1000.31,VALID,0,VALID,93.0127,VALID,0,VALID,21.8301,VALID,2,VALID,0.491797,
2012-06-19, 03:08:05,VALID,1000.3,VALID,0,VALID,93.1653,VALID,0,VALID,21.7895,VALID,2,VALID,0.466016,
2012-06-19, 03:09:05,VALID,1000.3,VALID,0,VALID,93.2645,VALID,0,VALID,21.7911,VALID,2,VALID,0.419922,
2012-06-19, 03:10:05,VALID,1000.28,VALID,0,VALID,93.3942,VALID,0,VALID,21.7521,VALID,2,VALID,0.213281,
2012-06-19, 03:11:05,VALID,1000.27,VALID,0,VALID,93.5926,VALID,0,VALID,21.731,VALID,2,VALID,0,
2012-06-19, 03:12:05,VALID,1000.29,VALID,0,VALID,93.7146,VALID,0,VALID,21.7521,VALID,2,VALID,0.406641,
2012-06-19, 03:13:05,VALID,1000.27,VALID,0,VALID,93.9054,VALID,0,VALID,21.7716,VALID,2,VALID,0.497656,
2012-06-19, 03:14:05,VALID,1000.3,VALID,0,VALID,93.852,VALID,0,VALID,21.7326,VALID,2,VALID,0.558203,
2012-06-19, 03:15:05,VALID,1000.31,VALID,0,VALID,93.7528,VALID,0,VALID,21.6725,VALID,43,VALID,0.755469,
2012-06-19, 03:16:05,VALID,1000.33,VALID,0,VALID,93.7299,VALID,0,VALID,21.6546,VALID,48,VALID,0.723828,
2012-06-19, 03:17:05,VALID,1000.32,VALID,0,VALID,93.913,VALID,0,VALID,21.6351,VALID,48,VALID,0.834375,
2012-06-19, 03:18:05,VALID,1000.33,VALID,0,VALID,93.8977,VALID,0,VALID,21.5555,VALID,48,VALID,0.822656,
2012-06-19, 03:19:05,VALID,1000.35,VALID,0,VALID,93.974,VALID,0,VALID,21.536,VALID,48,VALID,0.810547,
2012-06-19, 03:20:05,VALID,1000.33,VALID,0,VALID,94.2029,VALID,0,VALID,21.5165,VALID,48,VALID,0.878125,
2012-06-19, 03:21:05,VALID,1000.34,VALID,0,VALID,94.4089,VALID,0,VALID,21.497,VALID,48,VALID,0.942969,
2012-06-19, 03:22:05,VALID,1000.33,VALID,0,VALID,94.6226,VALID,0,VALID,21.536,VALID,48,VALID,0.88125,
2012-06-19, 03:23:05,VALID,1000.34,VALID,0,VALID,94.798,VALID,0,VALID,21.5555,VALID,48,VALID,0.766797,
2012-06-19, 03:24:04,VALID,1000.35,VALID,0,VALID,94.8591,VALID,0,VALID,21.5961,VALID,48,VALID,0.695313,
2012-06-19, 03:25:04,VALID,1000.34,VALID,0,VALID,94.9277,VALID,0,VALID,21.6156,VALID,48,VALID,0.369531,
2012-06-19, 03:26:04,VALID,1000.33,VALID,0,VALID,94.8896,VALID,0,VALID,21.5961,VALID,48,VALID,0.0488281,
2012-06-19, 03:27:04,VALID,1000.33,VALID,0,VALID,94.676,VALID,0,VALID,21.5181,VALID,48,VALID,0,
2012-06-19, 03:28:04,VALID,1000.33,VALID,0,VALID,94.592,VALID,0,VALID,21.4791,VALID,48,VALID,0.267969,
2012-06-19, 03:29:04,VALID,1000.35,VALID,0,VALID,94.5691,VALID,0,VALID,21.4596,VALID,48,VALID,0.268359,
2012-06-19, 03:30:04,VALID,1000.34,VALID,0,VALID,94.6149,VALID,0,VALID,21.3995,VALID,48,VALID,0.148828,
2012-06-19, 03:31:04,VALID,1000.33,VALID,0,VALID,94.6607,VALID,0,VALID,21.38,VALID,48,VALID,0.161719,
2012-06-19, 03:32:04,VALID,1000.33,VALID,0,VALID,94.7599,VALID,0,VALID,21.3816,VALID,48,VALID,0.489062,
2012-06-19, 03:33:04,VALID,1000.32,VALID,0,VALID,94.8896,VALID,0,VALID,21.4011,VALID,48,VALID,0.505078,
2012-06-19, 03:34:04,VALID,1000.28,VALID,0,VALID,95.004,VALID,0,VALID,21.4206,VALID,48,VALID,0.541406,
2012-06-19, 03:35:04,VALID,1000.29,VALID,0,VALID,95.1871,VALID,0,VALID,21.4791,VALID,48,VALID,0.671094,
2012-06-19, 03:36:04,VALID,1000.3,VALID,0,VALID,95.2558,VALID,0,VALID,21.497,VALID,48,VALID,0.890625,
2012-06-19, 03:37:04,VALID,1000.35,VALID,0,VALID,95.2482,VALID,0,VALID,21.5165,VALID,48,VALID,0.936328,
2012-06-19, 03:38:04,VALID,1000.33,VALID,0,VALID,95.2405,VALID,0,VALID,21.5555,VALID,48,VALID,0.871484,
2012-06-19, 03:39:04,VALID,1000.36,VALID,0,VALID,95.1337,VALID,0,VALID,21.4775,VALID,48,VALID,0.671094,
2012-06-19, 03:40:04,VALID,1000.35,VALID,0,VALID,94.7751,VALID,0,VALID,21.4401,VALID,48,VALID,0.317969,
2012-06-19, 03:41:04,VALID,1000.35,VALID,0,VALID,94.6912,VALID,0,VALID,21.4206,VALID,48,VALID,0.553906,
2012-06-19, 03:42:04,VALID,1000.35,VALID,0,VALID,94.7904,VALID,0,VALID,21.4596,VALID,48,VALID,0.496484,
2012-06-19, 03:43:04,VALID,1000.31,VALID,0,VALID,94.9201,VALID,0,VALID,21.4791,VALID,48,VALID,0.205859,
2012-06-19, 03:44:04,VALID,1000.32,VALID,0,VALID,94.9659,VALID,0,VALID,21.4791,VALID,48,VALID,0,
2012-06-19, 03:45:04,VALID,1000.33,VALID,0,VALID,95.0345,VALID,0,VALID,21.4775,VALID,48,VALID,0.401953,
2012-06-19, 03:46:04,VALID,1000.31,VALID,0,VALID,95.088,VALID,0,VALID,21.5181,VALID,48,VALID,0.429297,
2012-06-19, 03:47:04,VALID,1000.32,VALID,0,VALID,95.1185,VALID,0,VALID,21.5181,VALID,48,VALID,0.1,
2012-06-19, 03:48:04,VALID,1000.34,VALID,0,VALID,95.088,VALID,0,VALID,21.4986,VALID,48,VALID,0,